Torna al catalogo

DELTA 1 DEB

AttivoUNKNOWN
NORAD 17024·DEBRIS·🇺🇸 United States

Lanciato Jul 14, 1977 da Cape Canaveral Space Force Station

Loading…

Prossimi Passaggi (prossime 24 ore)

TLE

AggiornatoSource: Space-Track

Epoca: Sep 12, 2026, 02:17 UTC

1 17024U 77065FW  26255.09538908  .00000562  00000-0  11721-2 0  9998
2 17024  29.4293 164.9072 0842266   5.3279 355.5609 12.36910654567387

Traccia DELTA 1 DEB in tempo reale con AllMySat

Download on the App Store